This is the latest recevied weather packets stored in our database for station/object 9W2JBV-1. If no packets are shown the sender has not sent any weather packets the latest 10 day(s).
| Time | Temp. | Humidity | Pressure | Rain* | Wind** | Luminosity | Snow |
|---|---|---|---|---|---|---|---|
| 1777455758 | 32.22° C | 55% | 1014.7 hPa | - | - | - | - |
| 1777454558 | 32.78° C | 55% | 1014.7 hPa | - | - | - | - |
| 1777453361 | 33.89° C | 54% | 1014.3 hPa | - | - | - | - |
| 1777452164 | 34.44° C | 53% | 1013.9 hPa | - | - | - | - |
| 1777450957 | 34.44° C | 50% | 1013.5 hPa | - | - | - | - |
| 1777449757 | 35° C | 50% | 1013.6 hPa | - | - | - | - |
| 1777448557 | 35° C | 50% | 1013.7 hPa | - | - | - | - |
| 1777447358 | 35° C | 51% | 1013.9 hPa | - | - | - | - |
| 1777446167 | 35° C | 51% | 1014.3 hPa | - | - | - | - |
| 1777444958 | 35° C | 51% | 1015 hPa | - | - | - | - |
| 1777443757 | 35° C | 51% | 1015.2 hPa | - | - | - | - |
| 1777441363 | 34.44° C | 52% | 1016 hPa | - | - | - | - |
| 1777440164 | 33.89° C | 53% | 1016.4 hPa | - | - | - | - |
| 1777438964 | 33.89° C | 53% | 1016.7 hPa | - | - | - | - |
| 1777437762 | 33.89° C | 55% | 1017.1 hPa | - | - | - | - |
| 1777436562 | 33.89° C | 56% | 1017.4 hPa | - | - | - | - |
| 1777435362 | 33.89° C | 56% | 1017.7 hPa | - | - | - | - |
| 1777434162 | 33.33° C | 57% | 1017.7 hPa | - | - | - | - |
| 1777432962 | 33.33° C | 58% | 1017.8 hPa | - | - | - | - |
| 1777431762 | 33.33° C | 58% | 1018.2 hPa | - | - | - | - |
| 1777430562 | 32.78° C | 59% | 1018.4 hPa | - | - | - | - |
| 1777429362 | 32.78° C | 60% | 1018.4 hPa | - | - | - | - |
| 1777428161 | 32.78° C | 61% | 1018.3 hPa | - | - | - | - |
| 1777426961 | 32.78° C | 61% | 1018.3 hPa | - | - | - | - |
| 1777425761 | 32.22° C | 62% | 1018.1 hPa | - | - | - | - |
* Rain since midnight (hover to see other rain measurements)
** Current wind speed in m/s (hover to see current wind gust speed)